SCP
0 0 0 0 0 0 0 0 0 0 0 0 0 0 0 0 0 0 0 0 0 0 0 0 0 0 0 0 0 0 0 0 0 0 0 0 0 0 0 0 0 0 0 0
0 0 0 0 0 0 0 0 0 0 0 0 0 0 0 0 0 0 0 0 0 0 0 0 0 0 0 0 0 0 0 0 0 0 0 0 0 0 0 0 0 0 0 0
0 0 0 0 0 0 0 0 0 0 0 0 0 0 0 0 0 0 0 0 0 0 0 0 0 0 0 0 0 0 0 0 0 0 0 0 0 0 0 0 0 0 0 0
-0 0 0 0 0 0 0 0 0 0 0 0 0 0 0 0 0 0 0 0 0 0 0 0 0 0 0 0 0 0 0 0 0 0 0 0 0 0 0 0 0 0 0 0
0 -0 -0 0 0 0 0 0 0 0 0 0 0 0 0 0 0 0 0 0 0 0 0 0 0 0 0 0 0 0 0 0 0 0 0 0 0 0 0 0 0 0 0 -0
0 -0 0 0 0 0 0 0 0 0 0 0 0 0 0 0 0 0 0 0 0 0 0 0 0 0 0 0 0 0 0 0 0 0 0 0 0 0 0 0 0 0 0 -0
0 0 0 0 0 0 0 0 0 0 0 0 0 0 0 0 0 0 0 0 0 0 0 0 0 0 0 0 0 0 0 0 0 0 0 0 0 0 0 0 0 0 0 -0
0 0 0 0 0 0 0 0 0 0 0 0 0 0 0 0 0 0 0 0 0 0 0 0 0 0 0 0 0 0 0 0 0 0 0 0 0 0 0 0 0 0 0 0
0 0 0 0 0 0 0 0 0 -0 0 0 0 0 0 0 0 0 0 0 0 0 0 0 0 0 0 0 0 0 0 0 0 0 0 0 0 0 0 0 0 0 -0 0
0 0 0 0 0 0 0 0 0 -0 0 0 0 0 0 0 0 0 0 0 0 0 0 0 0 0 0 0 0 0 0 0 0 0 0 0 0 0 0 0 0 0 0 0
0 0 0 0 0 0 0 0 0 0 -0 -0 0 0 0 0 0 0 0 0 0 0 0 0 0 0 0 0 0 0 0 0 0 0 0 0 0 0 0 0 0 0 0 0
0 0 0 0 0 0 0 0 0 0 0 0 -0 0 0 0 0 0 -0 0 0 0 0 0 0 0 0 0 0 0 0 0 0 0 0 0 0 0 0 0 0 0 -0 -0
0 0 0 0 0 0 0 0 0 0 0 0 0 0 0 0 0 0 0 -0 -0 0 0 0 0 0 0 0 0 0 0 0 0 0 0 0 0 0 0 0 0 0 0 0
0 0 0 0 0 0 0 0 0 0 0 0 0 0 0 0 0 0 0 0 -0 -0 -0 -0 0 0 0 0 0 0 0 0 0 0 0 0 0 0 0 0 0 0 0 0
0 0 0 0 0 0 0 0 0 0 0 0 0 0 0 0 0 0 0 0 -0 -0 -0 -0 0 0 0 0 0 0 0 0 0 0 0 0 0 0 0 0 0 0 0 0
0 0 0 0 0 0 0 0 0 0 0 0 0 0 0 0 0 0 0 0 0 -0 -0 -0 -0 -0 0 0 0 0 0 0 0 0 0 0 0 0 0 0 0 0 0 0
0 0 0 0 0 0 0 0 0 0 0 0 0 0 0 0 0 0 0 0 0 0 -0 -0 -0 0 0 0 0 0 0 0 0 0 0 0 0 0 0 0 0 0 0 0
0 0 0 0 0 0 0 0 0 -0 0 0 0 0 0 0 0 0 0 0 0 0 0 -0 -0 -0 -0 0 0 0 0 0 0 0 0 0 0 0 0 0 0 0 0 0
0 0 0 0 0 0 0 -0 0 0 0 0 0 0 0 0 0 0 0 0 0 0 0 0 0 -0 -0 0 0 0 0 0 0 0 0 0 0 0 0 0 0 0 0 0
0 0 0 0 -0 -0 0 0 0 0 0 0 0 0 0 0 0 0 0 0 0 0 0 0 0 0 0 0 -0 -0 0 0 0 0 0 0 0 0 0 0 0 0 0 0
0 0 0 -0 0 0 -0 0 0 0 0 0 0 0 0 0 0 0 -0 0 -0 -0 0 0 0 0 0 0 0 0 0 0 0 0 0 0 0 0 0 0 0 0 0 0
0 0 0 0 0 0 0 0 0 0 0 0 0 0 0 0 0 0 0 0 -0 -0 -0 0 0 0 0 0 0 0 0 0 0 0 0 0 0 0 0 0 0 0 0 0
0 0 0 -0 -0 0 0 0 0 0 -0 -0 -0 0 -0 0 0 0 0 0 0 -0 -0 0 0 0 0 0 0 0 0 0 0 0 0 0 0 0 0 0 0 0 0 0
0 -0 -0 0 0 0 0 0 0 0 0 0 -0 -0 -0 0 0 0 0 0 0 0 -0 -0 -0 0 0 0 0 0 0 0 0 0 0 0 0 0 0 0 0 0 0 0
0 0 0 0 0 0 -0 -0 -0 -0 0 0 0 0 0 0 0 0 0 0 0 -0 -0 -0 -0 -0 -0 0 0 0 0 0 0 0 0 0 0 0 0 0 0 0 0 0
0 0 0 0 0 0 0 0 0 0 0 0 0 -0 0 0 0 0 0 0 0 -0 -0 -0 -0 -0 -0 -0 0 0 0 0 0 0 0 0 0 0 0 0 0 0 0 0
0 0 0 0 0 0 0 0 0 0 0 0 0 0 -0 0 0 0 0 0 -0 -0 -0 -0 -0 -0 -0 0 0 0 0 0 0 0 0 0 0 0 0 0 0 0 0 0
Wind_Speed_500mb
18 17 19 24 27 24 15 2 5 10 33 13 8 7 11 18 15 11 3 5 6 15 18 14 13 20 8 11 18 17 6 6 8 8 2 3 7 13 12 8 10 5 3 15
16 17 14 18 25 23 21 14 9 12 50 8 6 4 5 8 12 14 12 9 8 5 15 9 13 14 3 1 12 17 14 3 4 11 6 5 9 10 8 8 5 12 11 12
18 15 15 16 22 23 13 7 5 5 31 6 3 7 9 13 15 9 13 11 9 4 10 6 15 11 4 7 2 6 11 7 12 14 6 9 10 12 13 11 7 7 20 13
18 17 15 14 19 22 8 4 6 5 4 10 9 0 4 17 11 6 14 2 24 21 8 5 10 7 5 7 3 3 6 10 4 6 5 5 7 8 17 25 28 16 10 32
27 18 13 15 17 21 9 5 3 9 11 18 11 18 5 6 13 15 9 7 24 33 22 16 13 13 8 9 5 8 3 4 5 8 6 14 12 18 24 32 38 35 28 57
24 18 15 11 14 13 5 9 23 9 11 6 8 3 7 9 7 13 16 30 13 28 38 36 17 27 28 19 17 12 10 11 6 7 6 6 16 36 39 26 25 35 30 62
26 21 19 15 7 14 9 12 19 8 8 3 2 13 17 18 19 11 12 25 23 12 30 21 20 12 17 33 16 20 11 11 4 5 5 6 12 3 17 36 44 39 32 54
29 23 21 19 11 12 12 14 11 8 6 12 19 9 13 33 40 17 19 22 7 19 29 6 8 4 2 7 11 21 11 9 7 8 8 15 12 11 17 17 19 40 50 50
32 29 24 19 16 13 19 20 18 14 11 8 20 10 10 7 11 16 8 18 22 32 4 7 13 13 11 13 7 3 9 8 6 7 10 16 10 4 13 10 13 14 31 30
31 33 26 23 20 18 18 21 20 16 13 19 12 4 5 5 5 7 18 9 20 41 7 9 8 8 10 19 25 15 14 8 23 10 8 16 22 8 18 9 14 12 18 23
30 30 29 26 23 20 20 26 23 23 15 33 46 45 22 18 18 4 17 17 7 5 10 8 8 9 14 8 12 16 23 20 12 9 13 26 25 16 18 12 11 18 21 16
30 31 29 25 25 24 23 35 35 33 33 38 24 30 40 53 54 33 18 18 23 13 7 7 4 7 8 14 12 5 13 15 14 23 18 7 44 21 54 11 9 15 19 20
28 30 30 29 26 29 29 35 36 36 40 54 60 67 71 67 61 53 29 28 18 18 27 13 5 11 6 10 11 8 5 6 6 6 17 23 32 53 54 40 45 42 39 43
27 28 27 28 29 36 38 43 43 44 29 12 42 61 60 40 48 54 71 81 56 56 54 11 7 9 14 7 5 9 10 22 13 12 15 4 25 51 59 62 57 59 60 62
23 24 27 27 32 38 44 50 59 62 53 9 15 32 51 49 46 54 51 56 61 46 20 9 6 17 8 4 3 7 15 15 17 20 17 14 19 42 46 52 50 50 47 47
20 24 28 34 33 38 45 43 59 60 66 27 14 36 61 51 26 65 59 63 58 43 13 9 19 45 16 8 11 16 50 59 61 20 27 31 36 32 38 43 49 46 46 41
17 25 31 34 36 38 44 29 16 6 28 23 7 5 27 50 55 46 51 57 39 35 25 19 34 50 28 8 10 8 46 59 67 71 53 39 57 44 52 37 37 49 53 44
25 28 32 32 44 54 46 44 54 72 49 24 7 7 3 37 30 25 56 50 41 28 25 17 13 12 19 12 21 60 25 30 45 63 65 70 64 61 57 54 47 52 57 55
26 29 32 33 16 14 17 25 32 37 7 6 6 7 6 10 23 31 19 27 7 25 15 19 21 18 14 17 38 19 18 35 51 43 44 51 55 58 60 54 51 47 46 48
24 23 7 7 11 26 20 11 10 1 9 6 2 5 4 9 6 9 7 16 9 8 16 23 16 25 39 18 18 17 19 25 32 31 30 31 32 34 37 34 38 45 48 49
12 7 6 20 25 11 7 7 8 12 6 14 11 10 3 7 7 7 12 6 4 7 9 19 11 15 1 40 31 25 28 25 22 22 27 29 31 34 39 41 39 40 42 45
18 16 19 12 7 3 7 3 7 7 0 7 4 9 10 13 8 5 10 7 3 13 5 11 10 9 30 47 44 36 30 34 34 31 34 33 34 36 40 44 44 40 41 41
12 6 5 9 9 10 8 6 8 5 9 8 14 9 9 8 8 9 5 8 10 8 5 8 3 18 39 49 49 41 31 29 32 35 36 39 41 42 46 50 45 47 44 40
5 7 9 6 9 3 7 8 7 6 10 22 25 12 2 6 4 4 6 8 8 10 12 7 4 26 41 45 48 44 42 35 31 30 32 35 40 44 43 45 47 50 51 50
1 2 3 3 5 11 9 11 11 8 16 26 5 9 4 6 5 2 8 14 5 3 3 3 15 34 34 41 49 48 46 42 37 32 31 31 34 38 39 35 39 42 47 50
3 5 5 6 2 7 9 10 4 12 24 9 3 2 4 6 3 8 3 3 6 5 4 11 24 30 34 40 46 45 44 42 40 35 33 32 32 33 33 28 29 32 37 44
6 5 10 9 8 10 5 5 5 17 12 2 4 2 11 5 2 4 6 7 6 3 14 17 27 28 30 40 47 45 46 46 41 38 33 29 29 30 31 32 26 29 30 35
Wind_Direction_500mb
288 299 315 333 339 338 350 217 224 192 191 180 210 193 188 185 164 188 208 120 167 174 169 164 207 206 232 170 148 165 149 97 182 195 8 189 188 188 168 149 213 223 163 272
274 286 303 319 338 347 343 332 275 206 178 202 213 276 268 248 152 170 167 172 225 171 176 168 196 189 111 164 167 162 177 225 62 349 354 348 218 202 168 116 84 206 152 257
270 290 306 324 330 338 313 303 305 223 216 239 192 181 207 208 210 212 179 161 147 89 209 255 174 162 118 31 123 170 136 164 173 190 156 127 200 194 183 153 161 175 232 296
265 265 279 321 316 331 275 253 273 313 215 246 224 154 247 191 193 257 191 204 192 162 217 154 174 125 112 52 71 2 167 188 150 266 189 182 217 185 184 205 215 196 256 232
255 255 271 290 309 334 215 259 251 336 299 300 215 207 227 238 206 161 216 212 193 181 189 203 194 125 182 176 108 170 264 162 117 298 234 216 238 224 216 216 232 240 253 272
239 247 251 256 303 338 254 257 286 285 291 329 8 337 231 228 250 223 230 210 176 208 209 200 227 182 167 155 153 172 160 139 131 244 41 28 294 226 215 220 223 217 228 244
233 237 249 232 258 299 324 315 288 306 280 171 247 324 327 324 278 280 325 220 207 206 198 144 123 97 139 162 164 148 157 153 147 197 57 262 244 150 214 217 239 216 243 256
228 228 240 229 239 267 299 307 326 297 264 236 277 285 316 325 324 274 246 257 308 204 155 116 139 133 87 206 174 169 156 140 160 173 209 310 292 209 168 177 273 213 229 250
231 230 238 231 236 233 265 282 298 292 293 271 278 265 261 287 300 300 224 252 232 192 150 175 183 182 155 189 162 177 157 178 167 147 184 221 243 96 156 134 287 197 204 240
242 232 225 233 237 236 252 259 273 276 264 291 300 255 252 300 294 292 293 197 190 198 203 200 180 197 167 167 168 165 167 185 205 169 225 278 250 165 146 118 234 160 175 219
239 230 226 225 234 241 251 265 264 262 268 273 271 268 269 263 275 245 327 329 194 175 215 209 193 182 200 150 168 171 172 167 189 153 200 255 185 137 181 209 171 172 177 182
233 232 232 230 242 243 259 269 275 278 265 258 263 272 250 252 261 268 266 277 326 294 238 213 240 212 163 156 192 197 208 189 174 195 206 203 189 215 205 189 186 217 229 258
238 233 235 234 241 247 251 266 278 281 277 272 262 262 257 262 257 259 257 262 246 259 21 346 276 237 147 176 215 120 236 199 193 105 243 227 227 234 241 241 251 266 274 284
237 237 241 243 255 261 265 263 258 266 261 249 261 265 256 256 252 251 254 255 259 264 289 275 268 279 206 215 166 197 175 150 183 263 267 325 253 236 244 255 263 273 282 289
245 252 251 255 264 271 274 272 261 259 236 255 259 259 252 247 248 245 248 250 248 250 255 237 258 302 298 272 72 202 185 176 186 225 201 202 233 255 257 258 267 287 290 298
250 257 265 274 278 279 288 283 279 254 239 239 246 256 249 249 241 243 252 258 252 228 215 210 225 244 246 256 202 227 212 214 218 233 229 233 263 263 270 273 279 279 290 292
271 271 278 278 282 273 259 251 262 256 231 222 230 252 232 230 234 237 246 252 234 225 232 228 239 257 269 260 251 251 218 225 231 241 253 254 255 267 277 275 272 283 287 283
277 283 289 288 285 290 275 275 252 255 244 205 200 244 250 212 213 221 240 230 224 227 236 231 224 247 209 242 246 258 251 258 252 250 250 255 260 269 272 279 278 278 281 285
298 299 302 299 280 293 274 267 262 245 202 154 103 138 245 207 232 213 208 207 189 223 216 225 208 221 229 234 272 319 268 246 255 249 251 258 259 265 270 274 277 279 282 280
317 313 288 274 305 317 311 311 330 142 57 26 46 320 278 338 354 297 201 194 216 209 221 197 219 232 223 3 343 336 317 281 288 286 264 255 257 256 261 270 275 281 283 283
342 315 279 306 314 312 334 352 29 353 39 10 352 17 329 295 232 231 227 233 235 278 233 188 191 217 209 351 333 304 297 305 303 286 273 271 269 273 273 273 275 276 277 280
326 303 298 307 327 325 64 315 346 43 1 333 329 304 278 287 280 268 261 222 207 230 241 196 175 11 345 350 347 340 316 295 289 288 282 275 274 274 274 275 278 276 274 280
330 325 327 358 344 29 73 336 318 356 329 360 339 316 293 301 260 260 275 272 226 304 294 28 42 322 344 352 350 343 337 315 297 288 284 282 278 276 277 275 273 277 276 280
324 13 341 92 332 260 187 195 208 300 291 329 327 270 278 290 318 243 279 275 35 18 4 4 314 339 344 352 352 349 346 339 324 311 298 290 283 278 275 278 279 278 276 274
291 50 255 242 238 245 250 270 292 282 311 337 327 281 263 294 309 254 2 3 6 166 205 278 329 329 340 355 357 355 350 345 340 330 318 308 301 295 289 281 278 277 277 276
206 161 96 197 20 274 230 247 289 320 323 316 281 305 348 272 335 17 337 36 266 274 240 298 326 334 337 349 358 354 350 348 345 342 335 326 318 310 304 297 287 280 280 282
197 224 207 207 251 245 238 270 279 314 321 253 92 35 231 321 88 306 185 208 215 315 309 307 333 335 332 341 346 350 352 351 350 348 344 336 328 323 317 309 302 294 293 290
Wind_Speed_850mb
18 17 19 24 27 24 15 2 5 10 33 13 8 7 11 18 15 11 3 5 6 15 18 14 13 20 8 11 18 17 6 6 8 8 2 3 7 13 12 8 10 5 3 15
16 17 14 18 25 23 21 14 9 12 50 8 6 4 5 8 12 14 12 9 8 5 15 9 13 14 3 1 12 17 14 3 4 11 6 5 9 10 8 8 5 12 11 12
18 15 15 16 22 23 13 7 5 5 31 6 3 7 9 13 15 9 13 11 9 4 10 6 15 11 4 7 2 6 11 7 12 14 6 9 10 12 13 11 7 7 20 13
18 17 15 14 19 22 8 4 6 5 4 10 9 0 4 17 11 6 14 2 24 21 8 5 10 7 5 7 3 3 6 10 4 6 5 5 7 8 17 25 28 16 10 32
27 18 13 15 17 21 9 5 3 9 11 18 11 18 5 6 13 15 9 7 24 33 22 16 13 13 8 9 5 8 3 4 5 8 6 14 12 18 24 32 38 35 28 57
24 18 15 11 14 13 5 9 23 9 11 6 8 3 7 9 7 13 16 30 13 28 38 36 17 27 28 19 17 12 10 11 6 7 6 6 16 36 39 26 25 35 30 62
26 21 19 15 7 14 9 12 19 8 8 3 2 13 17 18 19 11 12 25 23 12 30 21 20 12 17 33 16 20 11 11 4 5 5 6 12 3 17 36 44 39 32 54
29 23 21 19 11 12 12 14 11 8 6 12 19 9 13 33 40 17 19 22 7 19 29 6 8 4 2 7 11 21 11 9 7 8 8 15 12 11 17 17 19 40 50 50
32 29 24 19 16 13 19 20 18 14 11 8 20 10 10 7 11 16 8 18 22 32 4 7 13 13 11 13 7 3 9 8 6 7 10 16 10 4 13 10 13 14 31 30
31 33 26 23 20 18 18 21 20 16 13 19 12 4 5 5 5 7 18 9 20 41 7 9 8 8 10 19 25 15 14 8 23 10 8 16 22 8 18 9 14 12 18 23
30 30 29 26 23 20 20 26 23 23 15 33 46 45 22 18 18 4 17 17 7 5 10 8 8 9 14 8 12 16 23 20 12 9 13 26 25 16 18 12 11 18 21 16
30 31 29 25 25 24 23 35 35 33 33 38 24 30 40 53 54 33 18 18 23 13 7 7 4 7 8 14 12 5 13 15 14 23 18 7 44 21 54 11 9 15 19 20
28 30 30 29 26 29 29 35 36 36 40 54 60 67 71 67 61 53 29 28 18 18 27 13 5 11 6 10 11 8 5 6 6 6 17 23 32 53 54 40 45 42 39 43
27 28 27 28 29 36 38 43 43 44 29 12 42 61 60 40 48 54 71 81 56 56 54 11 7 9 14 7 5 9 10 22 13 12 15 4 25 51 59 62 57 59 60 62
23 24 27 27 32 38 44 50 59 62 53 9 15 32 51 49 46 54 51 56 61 46 20 9 6 17 8 4 3 7 15 15 17 20 17 14 19 42 46 52 50 50 47 47
20 24 28 34 33 38 45 43 59 60 66 27 14 36 61 51 26 65 59 63 58 43 13 9 19 45 16 8 11 16 50 59 61 20 27 31 36 32 38 43 49 46 46 41
17 25 31 34 36 38 44 29 16 6 28 23 7 5 27 50 55 46 51 57 39 35 25 19 34 50 28 8 10 8 46 59 67 71 53 39 57 44 52 37 37 49 53 44
25 28 32 32 44 54 46 44 54 72 49 24 7 7 3 37 30 25 56 50 41 28 25 17 13 12 19 12 21 60 25 30 45 63 65 70 64 61 57 54 47 52 57 55
26 29 32 33 16 14 17 25 32 37 7 6 6 7 6 10 23 31 19 27 7 25 15 19 21 18 14 17 38 19 18 35 51 43 44 51 55 58 60 54 51 47 46 48
24 23 7 7 11 26 20 11 10 1 9 6 2 5 4 9 6 9 7 16 9 8 16 23 16 25 39 18 18 17 19 25 32 31 30 31 32 34 37 34 38 45 48 49
12 7 6 20 25 11 7 7 8 12 6 14 11 10 3 7 7 7 12 6 4 7 9 19 11 15 1 40 31 25 28 25 22 22 27 29 31 34 39 41 39 40 42 45
18 16 19 12 7 3 7 3 7 7 0 7 4 9 10 13 8 5 10 7 3 13 5 11 10 9 30 47 44 36 30 34 34 31 34 33 34 36 40 44 44 40 41 41
12 6 5 9 9 10 8 6 8 5 9 8 14 9 9 8 8 9 5 8 10 8 5 8 3 18 39 49 49 41 31 29 32 35 36 39 41 42 46 50 45 47 44 40
5 7 9 6 9 3 7 8 7 6 10 22 25 12 2 6 4 4 6 8 8 10 12 7 4 26 41 45 48 44 42 35 31 30 32 35 40 44 43 45 47 50 51 50
1 2 3 3 5 11 9 11 11 8 16 26 5 9 4 6 5 2 8 14 5 3 3 3 15 34 34 41 49 48 46 42 37 32 31 31 34 38 39 35 39 42 47 50
3 5 5 6 2 7 9 10 4 12 24 9 3 2 4 6 3 8 3 3 6 5 4 11 24 30 34 40 46 45 44 42 40 35 33 32 32 33 33 28 29 32 37 44
6 5 10 9 8 10 5 5 5 17 12 2 4 2 11 5 2 4 6 7 6 3 14 17 27 28 30 40 47 45 46 46 41 38 33 29 29 30 31 32 26 29 30 35
Wind_Direction_850mb
288 299 315 333 339 338 350 217 224 192 191 180 210 193 188 185 164 188 208 120 167 174 169 164 207 206 232 170 148 165 149 97 182 195 8 189 188 188 168 149 213 223 163 272
274 286 303 319 338 347 343 332 275 206 178 202 213 276 268 248 152 170 167 172 225 171 176 168 196 189 111 164 167 162 177 225 62 349 354 348 218 202 168 116 84 206 152 257
270 290 306 324 330 338 313 303 305 223 216 239 192 181 207 208 210 212 179 161 147 89 209 255 174 162 118 31 123 170 136 164 173 190 156 127 200 194 183 153 161 175 232 296
265 265 279 321 316 331 275 253 273 313 215 246 224 154 247 191 193 257 191 204 192 162 217 154 174 125 112 52 71 2 167 188 150 266 189 182 217 185 184 205 215 196 256 232
255 255 271 290 309 334 215 259 251 336 299 300 215 207 227 238 206 161 216 212 193 181 189 203 194 125 182 176 108 170 264 162 117 298 234 216 238 224 216 216 232 240 253 272
239 247 251 256 303 338 254 257 286 285 291 329 8 337 231 228 250 223 230 210 176 208 209 200 227 182 167 155 153 172 160 139 131 244 41 28 294 226 215 220 223 217 228 244
233 237 249 232 258 299 324 315 288 306 280 171 247 324 327 324 278 280 325 220 207 206 198 144 123 97 139 162 164 148 157 153 147 197 57 262 244 150 214 217 239 216 243 256
228 228 240 229 239 267 299 307 326 297 264 236 277 285 316 325 324 274 246 257 308 204 155 116 139 133 87 206 174 169 156 140 160 173 209 310 292 209 168 177 273 213 229 250
231 230 238 231 236 233 265 282 298 292 293 271 278 265 261 287 300 300 224 252 232 192 150 175 183 182 155 189 162 177 157 178 167 147 184 221 243 96 156 134 287 197 204 240
242 232 225 233 237 236 252 259 273 276 264 291 300 255 252 300 294 292 293 197 190 198 203 200 180 197 167 167 168 165 167 185 205 169 225 278 250 165 146 118 234 160 175 219
239 230 226 225 234 241 251 265 264 262 268 273 271 268 269 263 275 245 327 329 194 175 215 209 193 182 200 150 168 171 172 167 189 153 200 255 185 137 181 209 171 172 177 182
233 232 232 230 242 243 259 269 275 278 265 258 263 272 250 252 261 268 266 277 326 294 238 213 240 212 163 156 192 197 208 189 174 195 206 203 189 215 205 189 186 217 229 258
238 233 235 234 241 247 251 266 278 281 277 272 262 262 257 262 257 259 257 262 246 259 21 346 276 237 147 176 215 120 236 199 193 105 243 227 227 234 241 241 251 266 274 284
237 237 241 243 255 261 265 263 258 266 261 249 261 265 256 256 252 251 254 255 259 264 289 275 268 279 206 215 166 197 175 150 183 263 267 325 253 236 244 255 263 273 282 289
245 252 251 255 264 271 274 272 261 259 236 255 259 259 252 247 248 245 248 250 248 250 255 237 258 302 298 272 72 202 185 176 186 225 201 202 233 255 257 258 267 287 290 298
250 257 265 274 278 279 288 283 279 254 239 239 246 256 249 249 241 243 252 258 252 228 215 210 225 244 246 256 202 227 212 214 218 233 229 233 263 263 270 273 279 279 290 292
271 271 278 278 282 273 259 251 262 256 231 222 230 252 232 230 234 237 246 252 234 225 232 228 239 257 269 260 251 251 218 225 231 241 253 254 255 267 277 275 272 283 287 283
277 283 289 288 285 290 275 275 252 255 244 205 200 244 250 212 213 221 240 230 224 227 236 231 224 247 209 242 246 258 251 258 252 250 250 255 260 269 272 279 278 278 281 285
298 299 302 299 280 293 274 267 262 245 202 154 103 138 245 207 232 213 208 207 189 223 216 225 208 221 229 234 272 319 268 246 255 249 251 258 259 265 270 274 277 279 282 280
317 313 288 274 305 317 311 311 330 142 57 26 46 320 278 338 354 297 201 194 216 209 221 197 219 232 223 3 343 336 317 281 288 286 264 255 257 256 261 270 275 281 283 283
342 315 279 306 314 312 334 352 29 353 39 10 352 17 329 295 232 231 227 233 235 278 233 188 191 217 209 351 333 304 297 305 303 286 273 271 269 273 273 273 275 276 277 280
326 303 298 307 327 325 64 315 346 43 1 333 329 304 278 287 280 268 261 222 207 230 241 196 175 11 345 350 347 340 316 295 289 288 282 275 274 274 274 275 278 276 274 280
330 325 327 358 344 29 73 336 318 356 329 360 339 316 293 301 260 260 275 272 226 304 294 28 42 322 344 352 350 343 337 315 297 288 284 282 278 276 277 275 273 277 276 280
324 13 341 92 332 260 187 195 208 300 291 329 327 270 278 290 318 243 279 275 35 18 4 4 314 339 344 352 352 349 346 339 324 311 298 290 283 278 275 278 279 278 276 274
291 50 255 242 238 245 250 270 292 282 311 337 327 281 263 294 309 254 2 3 6 166 205 278 329 329 340 355 357 355 350 345 340 330 318 308 301 295 289 281 278 277 277 276
206 161 96 197 20 274 230 247 289 320 323 316 281 305 348 272 335 17 337 36 266 274 240 298 326 334 337 349 358 354 350 348 345 342 335 326 318 310 304 297 287 280 280 282
197 224 207 207 251 245 238 270 279 314 321 253 92 35 231 321 88 306 185 208 215 315 309 307 333 335 332 341 346 350 352 351 350 348 344 336 328 323 317 309 302 294 293 290